This is the latest recevied weather packets stored in our database for station/object KF7ROW. If no packets are shown the sender has not sent any weather packets the latest 10 day(s).
| Time | Temp. | Humidity | Pressure | Rain* | Wind** | Luminosity | Snow |
|---|---|---|---|---|---|---|---|
| 1777734097 | 11.11° C | 86% | 1020.8 hPa | 0 mm | - | 47 W/m² | - |
| 1777733794 | 11.11° C | 86% | 1020.8 hPa | 0 mm | - | 43 W/m² | - |
| 1777733491 | 11.11° C | 86% | 1020.9 hPa | 0 mm | - | 43 W/m² | - |
| 1777733187 | 11.11° C | 86% | 1020.8 hPa | 0 mm | - | 36 W/m² | - |
| 1777732884 | 11.11° C | 86% | 1020.7 hPa | 0 mm | - | 38 W/m² | - |
| 1777732580 | 11.11° C | 85% | 1020.7 hPa | 0 mm | - | 43 W/m² | - |
| 1777732278 | 10.56° C | 85% | 1020.9 hPa | 0 mm | - | 42 W/m² | - |
| 1777731975 | 10.56° C | 85% | 1020.8 hPa | 0 mm | - | 37 W/m² | - |
| 1777731672 | 10.56° C | 85% | 1020.7 hPa | 0 mm | - | 33 W/m² | - |
| 1777731369 | 10.56° C | 85% | 1020.8 hPa | 0 mm | - | 31 W/m² | - |
| 1777731067 | 10.56° C | 85% | 1020.8 hPa | 0 mm | - | 31 W/m² | - |
| 1777730765 | 10.56° C | 86% | 1020.8 hPa | 0 mm | - | 30 W/m² | - |
| 1777730461 | 10.56° C | 86% | 1020.8 hPa | 0 mm | - | 25 W/m² | - |
| 1777730157 | 10.56° C | 86% | 1020.8 hPa | 0 mm | - | 21 W/m² | - |
| 1777729854 | 10.56° C | 86% | 1020.7 hPa | 0 mm | - | 17 W/m² | - |
| 1777729550 | 10.56° C | 87% | 1020.8 hPa | 0 mm | - | 15 W/m² | - |
| 1777729247 | 10.56° C | 86% | 1020.8 hPa | 0 mm | - | 11 W/m² | - |
| 1777728944 | 10.56° C | 88% | 1020.9 hPa | 0 mm | - | 9 W/m² | - |
| 1777728641 | 10.56° C | 87% | 1020.9 hPa | 0 mm | - | 6 W/m² | - |
| 1777728338 | 10.56° C | 87% | 1020.9 hPa | 0 mm | - | 4 W/m² | - |
| 1777728035 | 10.56° C | 86% | 1020.9 hPa | 0 mm | - | 3 W/m² | - |
| 1777727732 | 10.56° C | 86% | 1020.9 hPa | 0 mm | - | 2 W/m² | - |
| 1777727429 | 10.56° C | 86% | 1020.7 hPa | 0 mm | - | 1 W/m² | - |
| 1777727126 | 10.56° C | 86% | 1020.8 hPa | 0 mm | - | 1 W/m² | - |
| 1777726824 | 10.56° C | 86% | 1020.5 hPa | 0 mm | - | 1 W/m² | - |
* Rain latest hour (hover to see other rain measurements)
** Current wind speed in m/s (hover to see current wind gust speed)